sat.trackr.live / text

‹ back to catalog

STARLINK-5770

NORAD 56026 · 2023-042AS

PAYLOAD ACTIVE UNKNOWN

§ Identity

Operator
Country
US
Launch date
2023-03-24
Launch site
AFETR
Launch vehicle
Mass (kg)
RCS (m²)

Purposes: comms

External: N2YO · Heavens-Above · Gunter

§ Orbital elements

Epoch: 2026-05-24T21:26:12.511104Z

Period
94.27 min
Inclination
43.0042°
Eccentricity
0.0001171
Mean motion
15.27576253 rev/d
Perigee alt
482.3 km
Apogee alt
483.9 km
Semi-major
6,861.2 km
B*
7.7078e-6
RAAN
334.5454°
Arg perigee
265.6126°
Mean anomaly
94.4592°
Rev number
17,468

§ Raw data

STARLINK-57701 56026U 23042AS  26144.89320036 -.00000050  00000+0  77078-5 0  99972 56026  43.0042 334.5454 0001171 265.6126  94.4592 15.27576253174682

JSON: /api/v1/satellites/56026 · /tle

For live sub-satellite position, see the globe view (requires WebGL).

§ Visibility from observer

Set your observer location to see the next 7 days of passes ≥ 10°. The values pass through the URL so the page stays shareable.

No JS? Fill the form by hand. The geolocation button needs JavaScript.